CAPE
0 0 0 0 0 0 0 0 0 0 0 0 0 0 0 0 133 52 154 422 734 995 1419 1460 1470 1501 1401 1425 1505 1617 1848 2072 2135 2120 2099 2115 2161 2247 2283 2276 2275 2298 2222 1834 1759 1834 1780 1515 1314
0 0 0 0 0 0 0 0 0 0 0 0 0 0 0 0 1 151 464 463 911 1304 1488 1560 1419 1484 1508 1480 1547 1742 1977 2045 2041 2104 2168 2214 2274 2305 2313 2251 2185 2257 2210 1921 1784 1838 1670 1460 1439
0 0 0 0 0 0 0 0 0 0 0 0 0 0 0 0 46 327 316 619 1054 1422 1491 1629 1412 1485 1574 1578 1627 1831 1947 1899 1936 2018 2227 2274 2326 2368 2290 2087 2016 2179 2323 2223 1871 1926 1811 1541 1340
0 0 0 0 0 0 0 0 0 0 0 0 0 0 0 0 2 119 365 820 1225 1509 1515 1437 1430 1499 1608 1698 1741 1881 1871 1792 1806 1959 2200 2321 2356 2339 2047 1880 1977 2260 2367 2370 2164 1841 1447 1087 1006
0 0 0 0 0 0 0 0 0 0 0 0 0 0 0 0 3 386 637 940 1106 1515 1586 1681 1443 1517 1670 1844 1852 1811 1736 1719 1766 1936 2101 2223 2153 1975 1712 1646 1836 2079 2265 2254 2039 1574 1169 887 845
0 0 0 0 0 0 0 0 0 0 0 0 0 0 0 0 0 358 659 879 1064 1506 1556 1763 1416 1524 1636 1775 1796 1678 1612 1623 1718 1863 2013 2106 1811 1522 1382 1443 1563 1770 1889 1776 1461 1158 964 686 670
0 0 0 0 0 0 0 0 0 0 0 0 0 0 0 0 0 308 539 582 981 1295 1468 1691 1832 1704 1629 1704 1755 1564 1502 1533 1662 1783 1920 1915 1387 1064 1100 1206 1391 1390 1471 1269 1140 934 746 531 538
0 0 0 0 0 0 0 0 0 0 0 0 0 0 0 0 6 271 494 552 716 954 1296 1523 1640 1575 1703 1932 1742 1489 1357 1435 1600 1696 1819 1821 1269 874 826 902 1213 1251 1120 1108 1006 726 667 415 284
0 0 0 0 0 0 0 0 0 0 0 0 0 0 0 0 236 334 464 514 544 723 953 1246 1158 1342 1937 2011 1720 1529 1358 1349 1525 1659 1752 1877 1795 1378 1023 679 829 1167 871 864 802 623 663 477 271
0 0 0 0 0 0 0 0 0 0 0 0 0 0 0 0 41 374 315 363 426 531 728 647 822 1233 1470 1898 1872 1857 1876 1830 1903 1991 2133 2111 1878 1773 1154 596 362 814 771 541 600 578 552 588 838
0 0 0 0 0 0 0 0 0 0 0 0 0 0 0 0 0 340 392 265 264 321 439 728 565 718 1689 1527 1782 1655 1532 1696 1667 1709 1894 1783 1566 1383 1394 1101 575 701 732 926 576 817 979 1010 962
0 0 0 0 0 0 0 0 0 0 0 0 0 0 0 0 0 0 386 446 700 651 423 635 837 739 879 1256 1408 1536 1374 1356 1547 1650 1774 1719 1477 1889 1574 1186 680 281 289 767 823 854 1051 1043 884
0 0 0 0 0 0 0 0 0 0 0 0 0 0 0 0 0 0 0 256 628 1040 1018 689 767 729 592 1230 1291 1622 1416 1410 1526 1480 1705 1709 1760 1699 1455 1217 601 211 268 641 747 793 623 741 798
0 0 0 0 0 0 0 0 0 0 0 0 0 0 0 0 0 0 0 0 114 881 1212 1231 806 944 808 723 1170 1552 1579 1460 1556 1577 1599 1734 1511 1477 1093 1188 880 483 329 405 538 640 450 692 491
0 0 0 0 0 0 0 0 0 0 0 0 0 0 0 0 0 0 0 0 0 142 848 1392 1279 1073 1165 1190 1069 1557 1512 1487 1498 1480 1498 2334 1723 1468 1135 1092 1021 869 452 443 446 561 46 570 548
0 0 0 0 0 0 0 0 0 0 0 0 0 0 0 0 0 0 0 0 0 0 0 107 1165 1081 1034 1017 1255 1465 1609 1674 1508 1508 1213 1818 2167 1867 1142 1071 1071 1045 770 537 547 416 86 289 551
0 0 0 0 0 0 0 0 0 0 0 0 0 0 0 0 0 0 0 0 0 0 0 0 624 1467 1301 1545 1428 1475 1532 1664 1581 1553 1314 1360 1877 1823 1462 1419 1301 959 989 810 669 451 279 150 320
0 0 0 0 0 0 0 0 0 0 0 0 0 0 0 0 0 0 0 0 0 0 0 0 0 975 1567 1705 1599 1533 1514 1582 1635 1641 1352 1195 1536 1647 1833 1339 947 667 1264 913 828 640 468 348 172
0 0 0 0 0 0 0 0 0 0 0 0 0 0 0 0 0 0 0 0 0 0 0 0 0 7 1666 1696 1446 1212 1207 1537 1583 1441 1008 796 918 1095 1620 1313 1065 841 960 1316 967 812 630 517 255
0 0 0 0 0 0 0 0 0 0 0 0 0 0 0 0 0 0 0 0 0 0 0 0 0 0 722 1556 1673 1551 1475 1383 1384 1078 1146 984 917 1442 1359 1396 1351 911 988 1079 1214 907 595 575 590
0 0 0 0 0 0 0 0 0 0 0 0 0 0 0 0 0 0 0 0 0 0 0 0 0 0 150 1951 2070 1912 1719 1776 1136 1318 1271 1085 1462 1286 1472 1484 1298 1078 958 1114 1126 987 593 571 473
0 0 0 0 0 0 0 0 0 0 0 0 0 0 0 0 0 0 0 0 0 0 0 0 59 131 0 2095 2251 1883 1618 1503 1537 1688 1459 1513 1303 1246 1325 1121 1065 873 630 1179 1507 980 866 560 392
0 0 0 0 0 0 0 0 0 0 0 0 0 0 0 0 0 0 0 0 0 0 0 13 434 1000 863 1804 2349 1814 1743 1949 1688 1816 2035 2012 2049 1725 1395 1016 864 1035 764 1136 1271 1356 1185 972 706
0 0 0 0 0 0 0 0 0 0 0 0 0 0 0 0 0 0 0 0 0 0 22 305 787 1151 1258 1434 1844 1934 1951 1323 1056 1012 1240 1212 1497 1558 1373 1387 1319 1160 1040 1533 1488 1248 1275 1075 578
0 0 0 0 0 0 0 0 0 0 0 0 0 0 10 2 3 0 0 0 2 6 142 731 1134 1435 1595 1636 1498 1472 1536 716 759 639 926 1080 955 1040 1515 1529 1266 1311 1329 1467 1437 1499 1027 939 970
0 0 0 0 0 0 0 0 0 0 0 0 0 0 9 15 0 3 13 4 9 50 328 796 839 799 811 824 756 485 382 538 273 243 176 771 1240 1267 1384 1326 1009 1199 885 952 1168 1192 959 1036 804
0 0 0 0 0 0 0 0 0 0 0 1 0 13 0 6 7 13 4 62 112 165 178 375 429 422 394 333 238 153 173 106 21 0 42 171 407 576 775 687 738 804 946 1004 1224 770 599 724 554
0 0 0 0 0 0 0 0 0 0 4 11 23 0 0 0 0 3 1 133 136 328 212 281 291 250 193 95 16 0 18 52 9 2 0 6 82 165 239 320 397 508 601 791 924 875 824 734 286
0 0 0 0 0 0 0 0 26 34 8 30 1 0 0 0 0 0 0 0 112 136 229 153 187 40 45 20 0 0 0 0 0 0 0 0 0 0 19 97 218 451 495 555 698 951 863 692 374
0 0 0 0 0 0 0 0 3 2 17 17 0 0 0 0 0 0 0 0 0 0 3 106 92 45 29 1 1 0 0 0 0 0 0 0 0 0 0 0 63 152 275 402 400 714 520 601 420
CIN
-0 -0 -0 -0 -0 -0 -0 -0 -0 -0 -0 -0 -0 -0 -0 -0 -152 -78 -637 -605 -550 -477 -408 -344 -312 -260 -238 -212 -172 -151 -95 -64 -52 -42 -30 -25 -15 -3 -0 -0 -1 -0 -0 -4 -4 -3 -6 -19 -35
-0 -0 -0 -0 -0 -0 -0 -0 -0 -0 -0 -0 -0 -0 -0 -0 -13 -326 -497 -677 -528 -469 -402 -313 -344 -296 -245 -219 -168 -127 -73 -58 -58 -47 -31 -16 -5 -0 -0 -1 -2 -1 -0 -2 -2 -0 -7 -20 -27
-0 -0 -0 -0 -0 -0 -0 -0 -0 -0 -0 -0 -0 -0 -0 -0 -338 -302 -381 -679 -560 -433 -403 -337 -381 -330 -266 -235 -164 -111 -85 -76 -62 -50 -21 -11 -2 -0 -0 -4 -6 -3 -0 -0 -0 -0 -0 -11 -27
-0 -0 -0 -0 -0 -0 -0 -0 -0 -0 -0 -0 -0 -0 -0 -0 -46 -415 -603 -581 -493 -441 -402 -431 -443 -380 -302 -227 -171 -107 -96 -103 -80 -51 -26 -15 -6 -0 -6 -17 -10 -1 -0 -0 -0 -0 -18 -43 -47
-0 -0 -0 -0 -0 -0 -0 -0 -0 -0 -0 -0 -0 -0 -0 -0 -72 -546 -538 -499 -461 -440 -399 -354 -382 -361 -288 -202 -165 -140 -138 -134 -105 -57 -35 -23 -22 -29 -39 -36 -16 -3 -1 -0 -0 -10 -43 -56 -41
-0 -0 -0 -0 -0 -0 -0 -0 -0 -0 -0 -0 -0 -0 -0 -0 -0 -521 -555 -519 -478 -418 -394 -316 -360 -320 -253 -197 -179 -173 -168 -160 -128 -77 -45 -31 -55 -75 -75 -60 -41 -26 -10 -10 -29 -44 -49 -63 -65
-0 -0 -0 -0 -0 -0 -0 -0 -0 -0 -0 -0 -0 -0 -0 -0 -0 -565 -572 -595 -493 -404 -415 -321 -273 -269 -254 -191 -150 -176 -185 -177 -147 -112 -67 -57 -102 -126 -115 -87 -60 -55 -39 -45 -55 -64 -66 -70 -83
-0 -0 -0 -0 -0 -0 -0 -0 -0 -0 -0 -0 -0 -0 -0 -0 -105 -592 -551 -586 -533 -444 -351 -341 -297 -291 -225 -164 -157 -163 -184 -172 -146 -123 -92 -77 -121 -165 -152 -119 -77 -67 -62 -54 -63 -80 -64 -91 -66
-0 -0 -0 -0 -0 -0 -0 -0 -0 -0 -0 -0 -0 -0 -0 -0 -451 -486 -474 -503 -496 -466 -391 -309 -322 -289 -189 -150 -168 -178 -185 -160 -127 -101 -85 -56 -42 -85 -120 -133 -119 -70 -86 -68 -78 -83 -54 -52 -53
-0 -0 -0 -0 -0 -0 -0 -0 -0 -0 -0 -0 -0 -0 -0 -0 -426 -317 -395 -393 -466 -470 -424 -433 -384 -291 -228 -161 -155 -126 -101 -80 -55 -45 -23 -13 -36 -41 -95 -152 -188 -103 -90 -108 -79 -65 -58 -28 -5
-0 -0 -0 -0 -0 -0 -0 -0 -0 -0 -0 -0 -0 -0 -0 -0 -0 -278 -293 -362 -399 -460 -471 -409 -450 -398 -203 -210 -166 -188 -188 -127 -101 -80 -51 -57 -76 -87 -64 -78 -116 -88 -73 -29 -66 -14 -4 -0 -7
-0 -0 -0 -0 -0 -0 -0 -0 -0 -0 -0 -0 -0 -0 -0 -0 -0 -0 -233 -273 -287 -368 -398 -419 -383 -399 -337 -239 -209 -193 -231 -220 -184 -144 -100 -83 -102 -33 -60 -86 -129 -171 -139 -46 -35 -22 -3 -0 -9
-0 -0 -0 -0 -0 -0 -0 -0 -0 -0 -0 -0 -0 -0 -0 -0 -0 -0 -0 -242 -213 -213 -284 -379 -369 -377 -401 -250 -212 -162 -206 -223 -193 -199 -153 -130 -101 -82 -89 -100 -139 -93 -151 -57 -42 -32 -33 -10 -3
-0 -0 -0 -0 -0 -0 -0 -0 -0 -0 -0 -0 -0 -0 -0 -0 -0 -0 -0 -0 -267 -167 -190 -278 -358 -336 -331 -339 -246 -181 -152 -167 -173 -171 -167 -144 -173 -152 -159 -126 -128 -107 -149 -94 -56 -38 -55 -17 -21
-0 -0 -0 -0 -0 -0 -0 -0 -0 -0 -0 -0 -0 -0 -0 -0 -0 -0 -0 -0 -0 -262 -152 -178 -257 -361 -340 -328 -305 -201 -209 -202 -186 -198 -182 -76 -119 -157 -183 -164 -142 -114 -88 -104 -57 -25 -166 -16 -15
-0 -0 -0 -0 -0 -0 -0 -0 -0 -0 -0 -0 -0 -0 -0 -0 -0 -0 -0 -0 -0 -0 -0 -269 -228 -309 -318 -306 -289 -256 -217 -187 -184 -178 -217 -127 -84 -89 -145 -126 -124 -125 -94 -76 -60 -52 -56 -46 -11
-0 -0 -0 -0 -0 -0 -0 -0 -0 -0 -0 -0 -0 -0 -0 -0 -0 -0 -0 -0 -0 -0 -0 -0 -246 -238 -307 -269 -293 -251 -235 -194 -191 -160 -191 -162 -69 -79 -112 -87 -80 -77 -71 -76 -47 -56 -38 -45 -32
-0 -0 -0 -0 -0 -0 -0 -0 -0 -0 -0 -0 -0 -0 -0 -0 -0 -0 -0 -0 -0 -0 -0 -0 -0 -211 -231 -219 -204 -203 -208 -197 -182 -177 -184 -182 -100 -82 -61 -104 -124 -131 -21 -54 -51 -43 -27 -25 -22
-0 -0 -0 -0 -0 -0 -0 -0 -0 -0 -0 -0 -0 -0 -0 -0 -0 -0 -0 -0 -0 -0 -0 -0 -0 -207 -177 -184 -219 -238 -280 -252 -208 -204 -221 -211 -192 -131 -64 -94 -102 -99 -51 -22 -42 -27 -22 -19 -24
-0 -0 -0 -0 -0 -0 -0 -0 -0 -0 -0 -0 -0 -0 -0 -0 -0 -0 -0 -0 -0 -0 -0 -0 -0 -0 -200 -166 -208 -205 -241 -253 -230 -196 -46 -43 -166 -87 -73 -68 -56 -85 -39 -21 -15 -17 -36 -13 -2
-0 -0 -0 -0 -0 -0 -0 -0 -0 -0 -0 -0 -0 -0 -0 -0 -0 -0 -0 -0 -0 -0 -0 -0 -0 -0 -259 -126 -94 -103 -102 -80 -184 -108 -85 -70 -95 -50 -24 -25 -18 -33 -27 -16 -17 -14 -44 -43 -25
-0 -0 -0 -0 -0 -0 -0 -0 -0 -0 -0 -0 -0 -0 -0 -0 -0 -0 -0 -0 -0 -0 -0 -0 -358 -434 -0 -64 -45 -86 -125 -123 -136 -153 -187 -146 -170 -138 -45 -10 -21 -8 -45 -5 -0 -4 -8 -41 -39
-0 -0 -0 -0 -0 -0 -0 -0 -0 -0 -0 -0 -0 -0 -0 -0 -0 -0 -0 -0 -0 -0 -0 -460 -245 -144 -191 -75 -25 -50 -45 -17 -72 -64 -19 -90 -74 -100 -118 -75 -0 -7 -13 -19 -2 -0 -1 -0 -6
-0 -0 -0 -0 -0 -0 -0 -0 -0 -0 -0 -0 -0 -0 -0 -0 -0 -0 -0 -0 -0 -0 -256 -136 -109 -73 -61 -47 -15 -0 -0 -34 -165 -155 -90 -2 -62 -80 -40 -89 -8 -24 -9 -0 -0 -0 -0 -0 -4
-0 -0 -0 -0 -0 -0 -0 -0 -0 -0 -0 -0 -0 -0 -0 -0 -0 -0 -0 -0 -0 -58 -108 -4 -2 -9 -5 -0 -0 -0 -6 -113 -146 -91 -34 -5 -32 -78 -26 -9 -6 -20 -4 -0 -0 -0 -0 -0 -0
-0 -0 -0 -0 -0 -0 -0 -0 -0 -0 -0 -0 -0 -0 -0 -0 -0 -0 -0 -0 -0 -16 -16 -0 -0 -9 -22 -31 -54 -49 -49 -122 -175 -119 -33 -25 -9 -8 -1 -16 -27 -8 -23 -7 -0 -0 -0 -0 -0
-0 -0 -0 -0 -0 -0 -0 -0 -0 -0 -0 -90 -0 -0 -0 -0 -0 -24 -6 -0 -11 -15 -6 -0 -0 -14 -16 -25 -30 -22 -28 -55 -51 -0 -190 -143 -93 -40 -12 -27 -15 -6 -7 -5 -0 -0 -1 -0 -0
-0 -0 -0 -0 -0 -0 -0 -0 -0 -3 -43 -0 -30 -0 -0 -0 -0 -17 -7 -0 -0 -0 -0 -0 -0 -2 -5 -8 -38 -0 -65 -59 -82 -31 -0 -156 -150 -124 -92 -66 -27 -3 -1 -4 -0 -0 -0 -0 -9
-0 -0 -0 -0 -0 -0 -0 -0 -2 -2 -0 -0 -0 -0 -0 -20 -0 -0 -0 -0 -0 -0 -0 -0 -0 -21 -3 -20 -0 -0 -0 -34 -0 -0 -0 -0 -0 -0 -209 -152 -86 -9 -0 -0 -0 -0 -0 -0 -6
-0 -0 -0 -0 -0 -0 -0 -0 -45 -2 -48 -2 -0 -0 -0 -0 -0 -0 -0 -0 -0 -0 -0 -0 -0 -1 -5 -0 -37 -0 -0 -0 -0 -0 -0 -0 -0 -0 -0 -16 -189 -104 -38 -6 -2 -0 -0 -0 -0
Wind_Speed
nan nan nan nan nan nan nan nan nan nan nan nan nan nan nan nan 17 nan 13 26 28 35 30 23 21 20 17 18 19 21 20 23 25 26 24 25 25 24 24 25 24 26 28 32 35 38 38 37 33
nan nan nan nan nan nan nan nan nan nan nan nan nan nan nan nan nan 12 16 26 33 37 32 23 23 21 20 21 19 20 20 22 25 27 27 26 26 26 27 26 26 28 31 32 34 38 40 38 32
nan nan nan nan nan nan nan nan nan nan nan nan nan nan nan nan nan 17 18 28 38 45 39 26 24 22 19 22 20 21 22 22 23 26 28 28 27 28 28 28 28 29 32 33 36 38 39 37 30
nan nan nan nan nan nan nan nan nan nan nan nan nan nan nan nan nan 21 26 32 39 44 42 36 37 30 23 23 24 24 24 24 25 26 28 29 29 29 30 29 30 29 32 35 36 40 39 37 31
nan nan nan nan nan nan nan nan nan nan nan nan nan nan nan nan nan 32 33 28 38 41 38 34 35 37 31 27 26 25 26 27 27 29 29 30 31 31 31 30 31 31 32 36 38 39 40 38 31
nan nan nan nan nan nan nan nan nan nan nan nan nan nan nan nan nan 33 39 37 38 41 37 37 33 36 35 32 27 26 28 30 30 30 30 31 32 32 32 32 31 32 33 36 38 40 40 38 31
nan nan nan nan nan nan nan nan nan nan nan nan nan nan nan nan nan 36 45 42 41 39 42 41 38 31 34 35 33 30 30 31 31 32 33 33 32 32 33 34 33 33 33 36 37 38 39 37 30
nan nan nan nan nan nan nan nan nan nan nan nan nan nan nan nan nan 39 43 50 44 40 40 43 39 33 28 29 34 31 32 33 33 34 35 35 34 32 33 35 33 33 33 35 35 35 38 37 29
nan nan nan nan nan nan nan nan nan nan nan nan nan nan nan nan 35 39 42 45 45 46 41 39 39 35 30 29 28 27 29 32 34 33 33 34 29 31 34 33 35 35 34 33 34 34 35 34 27
nan nan nan nan nan nan nan nan nan nan nan nan nan nan nan nan nan 34 37 38 45 43 43 42 41 38 35 28 29 28 26 27 28 29 31 30 28 29 30 33 34 36 35 32 32 30 31 34 29
nan nan nan nan nan nan nan nan nan nan nan nan nan nan nan nan nan 33 35 39 38 44 46 47 46 41 38 34 31 31 30 29 29 29 30 29 29 26 29 30 31 33 34 29 29 28 26 29 27
nan nan nan nan nan nan nan nan nan nan nan nan nan nan nan nan nan nan 35 39 45 43 44 48 49 50 45 37 35 32 30 31 28 28 28 27 28 27 29 31 33 32 31 30 28 24 25 26 26
nan nan nan nan nan nan nan nan nan nan nan nan nan nan nan nan nan nan nan 37 40 49 47 45 48 49 52 41 32 29 29 31 30 30 29 27 27 28 30 31 32 33 33 31 27 24 24 23 24
nan nan nan nan nan nan nan nan nan nan nan nan nan nan nan nan nan nan nan nan 41 38 46 54 53 48 52 48 37 31 28 30 32 33 32 31 31 29 32 30 31 33 34 30 27 25 22 21 23
nan nan nan nan nan nan nan nan nan nan nan nan nan nan nan nan nan nan nan nan nan 40 43 48 50 54 55 49 48 32 30 29 30 32 35 36 33 32 35 31 31 32 34 34 28 26 nan 20 21
nan nan nan nan nan nan nan nan nan nan nan nan nan nan nan nan nan nan nan nan nan nan nan 48 52 55 54 51 38 36 36 33 30 31 35 37 40 36 37 33 31 34 35 34 28 28 nan 20 20
nan nan nan nan nan nan nan nan nan nan nan nan nan nan nan nan nan nan nan nan nan nan nan nan 48 54 58 54 52 48 42 41 37 34 36 37 39 42 42 36 34 37 36 36 29 28 25 21 20
nan nan nan nan nan nan nan nan nan nan nan nan nan nan nan nan nan nan nan nan nan nan nan nan nan 46 49 53 55 52 49 45 44 42 41 41 38 36 39 43 40 41 39 37 32 29 27 22 21
nan nan nan nan nan nan nan nan nan nan nan nan nan nan nan nan nan nan nan nan nan nan nan nan nan nan 53 57 58 55 46 49 50 49 53 47 44 37 40 45 45 41 40 39 37 34 31 25 25
nan nan nan nan nan nan nan nan nan nan nan nan nan nan nan nan nan nan nan nan nan nan nan nan nan nan 44 51 52 57 59 53 56 59 56 54 47 40 42 46 44 44 42 40 37 35 36 29 30
nan nan nan nan nan nan nan nan nan nan nan nan nan nan nan nan nan nan nan nan nan nan nan nan nan nan 32 30 42 52 56 60 62 57 63 59 55 45 47 45 47 46 45 39 37 32 36 33 29
nan nan nan nan nan nan nan nan nan nan nan nan nan nan nan nan nan nan nan nan nan nan nan nan nan 30 nan 29 34 43 48 53 51 49 51 55 50 52 49 41 43 36 38 33 35 32 33 33 29
nan nan nan nan nan nan nan nan nan nan nan nan nan nan nan nan nan nan nan nan nan nan nan nan 40 35 29 33 33 43 45 50 53 53 51 54 55 49 49 41 32 27 36 33 34 32 32 31 28
nan nan nan nan nan nan nan nan nan nan nan nan nan nan nan nan nan nan nan nan nan nan nan 59 56 53 45 47 46 44 48 52 57 58 57 46 57 48 40 45 37 45 44 31 34 33 34 29 28
nan nan nan nan nan nan nan nan nan nan nan nan nan nan nan nan nan nan nan nan nan nan 69 65 66 65 59 58 55 53 61 64 65 63 72 38 28 43 41 43 45 45 42 37 38 35 36 30 29
nan nan nan nan nan nan nan nan nan nan nan nan nan nan nan nan nan nan nan nan nan nan 81 77 77 75 69 65 60 55 51 55 59 57 37 40 37 39 40 39 35 36 45 41 40 38 37 34 30
nan nan nan nan nan nan nan nan nan nan nan nan nan nan nan nan nan nan nan nan 59 77 87 85 82 73 70 69 68 63 62 68 nan nan nan 47 50 45 40 36 29 32 39 42 38 37 36 35 32
nan nan nan nan nan nan nan nan nan nan nan nan nan nan nan nan nan nan nan 30 45 49 54 64 71 64 60 nan nan nan nan nan nan nan nan nan nan 43 40 42 41 35 33 36 38 37 34 35 35
nan nan nan nan nan nan nan nan nan nan nan nan nan nan nan nan nan nan nan nan 33 50 48 52 67 nan nan nan nan nan nan nan nan nan nan nan nan nan nan nan 44 37 39 30 36 35 37 33 34
nan nan nan nan nan nan nan nan nan nan nan nan nan nan nan nan nan nan nan nan nan nan nan 48 nan nan nan nan nan nan nan nan nan nan nan nan nan nan nan nan nan 42 41 31 31 31 40 40 29
Wind_Direction
nan nan nan nan nan nan nan nan nan nan nan nan nan nan nan nan 310 nan 259 324 317 316 314 305 296 301 306 305 316 310 311 314 318 317 320 322 324 325 325 324 321 324 325 330 328 330 329 327 309
nan nan nan nan nan nan nan nan nan nan nan nan nan nan nan nan nan 254 287 307 315 310 303 297 298 307 312 304 312 317 318 317 317 317 321 323 325 326 326 324 328 329 328 329 326 328 332 328 310
nan nan nan nan nan nan nan nan nan nan nan nan nan nan nan nan nan 259 268 303 314 321 307 294 297 302 305 306 307 308 312 312 315 316 319 321 325 324 324 327 329 331 332 331 330 327 328 327 307
nan nan nan nan nan nan nan nan nan nan nan nan nan nan nan nan nan 245 272 300 309 319 324 313 314 308 304 305 301 298 300 303 306 308 314 319 319 318 320 323 326 328 329 329 328 327 328 328 314
nan nan nan nan nan nan nan nan nan nan nan nan nan nan nan nan nan 270 285 288 300 311 316 325 315 306 303 305 301 297 299 299 302 304 308 312 312 314 315 316 318 321 324 323 325 328 329 333 318
nan nan nan nan nan nan nan nan nan nan nan nan nan nan nan nan nan 263 280 285 290 302 302 312 313 305 301 301 297 296 298 297 299 301 302 303 305 308 309 309 311 311 315 319 324 329 332 333 318
nan nan nan nan nan nan nan nan nan nan nan nan nan nan nan nan nan 264 276 274 284 294 299 306 311 308 294 296 293 297 295 296 297 300 300 298 300 302 304 304 307 310 313 318 323 329 333 333 321
nan nan nan nan nan nan nan nan nan nan nan nan nan nan nan nan nan 268 278 277 277 282 288 297 301 302 301 299 285 288 292 291 293 296 296 295 297 299 299 298 304 307 310 315 321 328 335 336 323
nan nan nan nan nan nan nan nan nan nan nan nan nan nan nan nan 262 272 277 277 278 280 286 291 296 296 293 300 301 293 288 285 283 285 287 291 299 302 301 295 300 305 308 311 319 327 336 334 328
nan nan nan nan nan nan nan nan nan nan nan nan nan nan nan nan nan 267 276 282 285 288 287 289 293 295 297 295 302 307 297 289 288 290 292 291 295 297 297 293 295 301 305 307 314 324 325 338 337
nan nan nan nan nan nan nan nan nan nan nan nan nan nan nan nan nan 272 277 279 283 285 288 293 295 297 301 303 304 304 287 280 283 295 293 294 289 289 288 286 290 294 300 302 309 319 332 342 335
nan nan nan nan nan nan nan nan nan nan nan nan nan nan nan nan nan nan 278 286 282 282 285 291 295 299 296 295 300 307 295 291 287 287 287 282 281 285 289 290 291 292 294 300 304 313 324 337 338
nan nan nan nan nan nan nan nan nan nan nan nan nan nan nan nan nan nan nan 275 282 288 287 286 288 292 293 294 295 300 296 294 295 292 291 286 283 285 288 289 289 289 291 296 298 305 316 328 333
nan nan nan nan nan nan nan nan nan nan nan nan nan nan nan nan nan nan nan nan 282 284 286 291 293 291 289 291 292 289 282 283 285 288 288 293 286 286 285 289 288 288 290 293 292 298 307 319 326
nan nan nan nan nan nan nan nan nan nan nan nan nan nan nan nan nan nan nan nan nan 284 280 285 286 287 291 294 289 287 284 280 281 280 287 291 291 292 288 287 287 287 287 292 289 288 nan 308 321
nan nan nan nan nan nan nan nan nan nan nan nan nan nan nan nan nan nan nan nan nan nan nan 277 280 284 286 285 275 287 282 277 277 282 281 290 293 291 283 280 283 284 282 286 288 287 nan 299 313
nan nan nan nan nan nan nan nan nan nan nan nan nan nan nan nan nan nan nan nan nan nan nan nan 279 287 290 289 286 286 282 278 275 278 277 283 291 290 290 285 282 281 280 284 286 284 286 288 300
nan nan nan nan nan nan nan nan nan nan nan nan nan nan nan nan nan nan nan nan nan nan nan nan nan 280 285 283 283 282 285 286 283 279 273 279 274 280 282 277 276 276 274 278 284 285 278 278 286
nan nan nan nan nan nan nan nan nan nan nan nan nan nan nan nan nan nan nan nan nan nan nan nan nan nan 277 280 284 286 290 290 286 282 283 282 270 265 268 270 275 274 276 277 280 276 279 269 275
nan nan nan nan nan nan nan nan nan nan nan nan nan nan nan nan nan nan nan nan nan nan nan nan nan nan 270 271 277 278 280 280 278 275 273 276 271 271 260 265 270 273 268 270 276 277 268 263 274
nan nan nan nan nan nan nan nan nan nan nan nan nan nan nan nan nan nan nan nan nan nan nan nan nan nan 262 280 269 267 269 268 271 275 272 275 278 283 262 262 264 268 265 261 269 273 275 269 270
nan nan nan nan nan nan nan nan nan nan nan nan nan nan nan nan nan nan nan nan nan nan nan nan nan 259 nan 280 275 278 275 274 272 271 273 277 285 284 272 268 264 254 254 254 265 266 269 267 274
nan nan nan nan nan nan nan nan nan nan nan nan nan nan nan nan nan nan nan nan nan nan nan nan 258 258 261 260 272 267 267 262 261 257 260 265 269 277 276 276 253 246 249 250 265 270 267 262 266
nan nan nan nan nan nan nan nan nan nan nan nan nan nan nan nan nan nan nan nan nan nan nan 256 259 256 259 263 262 264 267 263 256 249 257 248 250 261 261 267 260 271 265 259 268 270 263 260 264
nan nan nan nan nan nan nan nan nan nan nan nan nan nan nan nan nan nan nan nan nan nan 256 254 256 256 254 258 260 261 257 254 256 250 240 250 232 243 255 270 267 267 267 265 264 265 263 263 263
nan nan nan nan nan nan nan nan nan nan nan nan nan nan nan nan nan nan nan nan nan nan 252 255 252 253 253 253 253 250 231 251 248 254 230 233 260 262 270 268 262 265 259 256 263 256 256 259 260
nan nan nan nan nan nan nan nan nan nan nan nan nan nan nan nan nan nan nan nan 251 252 245 245 247 248 247 248 248 240 247 254 nan nan nan 264 263 249 255 261 272 264 264 255 252 256 257 258 260
nan nan nan nan nan nan nan nan nan nan nan nan nan nan nan nan nan nan nan 246 232 228 227 227 236 231 236 nan nan nan nan nan nan nan nan nan nan 247 245 251 258 253 247 257 250 252 254 257 257
nan nan nan nan nan nan nan nan nan nan nan nan nan nan nan nan nan nan nan nan 227 228 219 218 214 nan nan nan nan nan nan nan nan nan nan nan nan nan nan nan 245 249 238 250 252 250 248 252 255
nan nan nan nan nan nan nan nan nan nan nan nan nan nan nan nan nan nan nan nan nan nan nan 215 nan nan nan nan nan nan nan nan nan nan nan nan nan nan nan nan nan 238 230 234 241 243 250 242 247